This is the latest recevied telemetry packets stored in our database for station/object OK4AB-13. If no packets are shown the sender has not sent any telemetry packets the latest 1 day(s).
Telemetry packets is used to share measurements like repeteater parameters, battery voltage, radiation readings (or any other measurements).
| Time | Temperatu* | Humidity* | BARO* | BAT* | Satellite* |
|---|---|---|---|---|---|
| 1778005781 | 26.79 C | 47.51 % | 963.8 hPa | 0 v | 12 |
| 1778005601 | 26.82 C | 47.46 % | 963.8 hPa | 0 v | 12 |
| 1778005421 | 26.85 C | 47.48 % | 963.8 hPa | 0 v | 12 |
| 1778005001 | 26.84 C | 47.56 % | 963.7 hPa | 0 v | 12 |
| 1778004881 | 26.84 C | 47.51 % | 963.7 hPa | 0 v | 12 |
| 1778004641 | 26.86 C | 47.48 % | 963.7 hPa | 0 v | 12 |
| 1778004581 | 26.86 C | 47.3 % | 963.7 hPa | 0 v | 12 |
| 1778004521 | 26.87 C | 47.49 % | 963.7 hPa | 0 v | 12 |
| 1778003845 | 26.87 C | 47.52 % | 964 hPa | 0 v | 12 |
| 1778003665 | 26.89 C | 47.59 % | 964.1 hPa | 0 v | 12 |
| 1778003555 | 26.92 C | 47.57 % | 964.1 hPa | 0 v | 12 |
| 1778003425 | 26.94 C | 47.56 % | 964.1 hPa | 0 v | 12 |
| 1778003305 | 26.95 C | 47.53 % | 964.2 hPa | 0 v | 12 |
| 1778003257 | 26.96 C | 47.52 % | 964.2 hPa | 0 v | 12 |
| 1778003195 | 26.97 C | 47.49 % | 964.2 hPa | 0 v | 12 |
| 1778003125 | 26.98 C | 47.52 % | 964.2 hPa | 0 v | 12 |
| 1778002945 | 27.01 C | 47.53 % | 964.3 hPa | 0 v | 12 |
| 1778002394 | 27.05 C | 47.54 % | 964.3 hPa | 0 v | 12 |
| 1778002362 | 27.05 C | 47.55 % | 964.3 hPa | 0 v | 12 |
| 1778002353 | 27.05 C | 47.55 % | 964.3 hPa | 0 v | 12 |
| 1778002292 | 27.05 C | 47.51 % | 964.3 hPa | 0 v | 12 |
| 1778002162 | 27.04 C | 47.53 % | 964.3 hPa | 0 v | 12 |
| 1778001973 | 27.03 C | 47.57 % | 964.4 hPa | 0 v | 12 |
| 1778001802 | 27.01 C | 47.59 % | 964.4 hPa | 0 v | 12 |
| 1778001622 | 27.01 C | 47.6 % | 964.4 hPa | 0 v | 12 |
*Used Equation Coefficients:
Temperatu: 0, 0.01, 0
Humidity: 0, 0.01, 0
BARO: 0, 0.1, 800
BAT: 0, 0.01, 0
Satellite: 0, 1, 0
- The parameter names for the analog channels will be Value1, Value2, Value3 (up to Value5) if station has not sent a PARAM-packet that specifies the parameter names for each analog channel.
- Each analog value is a decimal number between 000 and 255 (according to APRS specifications). The receiver use the telemetry equation coefficientsto to restore the original sensor values. If no EQNS-packet with equation coefficients is sent we will show the values as is (this corresponds to the equation coefficients a=0, b=1 and c=0).
The sent equation coefficients is used in the equation: a * value2 + b * value + c. - The units for the analog values will not be shown if station has not sent a UNIT-packet specifying what unit's to use.
- The parameter names for the digital bits will be Bit1, Bit2, Bit3 (up to Bit8) if station has not sent a PARAM-packet that specifies the parameter names for each digital bit.
- All bit labels will be named "On" if station has not sent a UNIT-packet that specifies the label of each bit.
- A bit is considered to be On when the bit is 1 if station has not sent a BITS-packet that specifies another "Bit sense" (a BITS-packet specify the state of the bits that match the BIT labels)